When you browse on this site, cookies collect data to enhance your experience and personalize the content and advertising you see.
Visit our Privacy Policy to learn more. By continuing to use the site, you agree to this use of cookies and data.
  • In Spain
  • List of Countries
  • For 7 days
  • Water Temperature
  • Weather Map
  • Weather Widgets
  • user-avatar
    Login

    Hourly Weather Bahury

    Today, 22 August, Thursday

    Time Temperature Precipitation Wind Pressure Humidity
    00:00 +20°C° 0.2 mm 3 mps 748 mmHg 90%
    01:00 +19°C° 0.2 mm 3 mps 749 mmHg 93%
    02:00 +18°C° 0.2 mm 3 mps 749 mmHg 97%
    03:00 +17°C° 0 mm 4 mps 749 mmHg 96%
    04:00 +15°C° 0 mm 4 mps 750 mmHg 95%
    05:00 +15°C° 0 mm 5 mps 750 mmHg 94%
    06:00 +15°C° 0 mm 5 mps 751 mmHg 92%
    07:00 +15°C° 0 mm 4 mps 752 mmHg 90%
    08:00 +15°C° 0 mm 4 mps 752 mmHg 88%
    09:00 +17°C° 0 mm 4 mps 753 mmHg 82%
    10:00 +18°C° 0 mm 4 mps 753 mmHg 77%
    11:00 +19°C° 0 mm 4 mps 753 mmHg 71%
    12:00 +20°C° 0 mm 4 mps 753 mmHg 68%
    13:00 +21°C° 0 mm 4 mps 754 mmHg 64%
    14:00 +22°C° 0 mm 3 mps 754 mmHg 61%
    15:00 +22°C° 0 mm 3 mps 754 mmHg 64%
    16:00 +21°C° 0 mm 2 mps 754 mmHg 66%
    17:00 +21°C° 0 mm 2 mps 754 mmHg 69%
    18:00 +19°C° 0 mm 2 mps 754 mmHg 73%
    19:00 +17°C° 0 mm 2 mps 754 mmHg 77%
    20:00 +15°C° 0 mm 1 mps 754 mmHg 82%
    21:00 +14°C° 0 mm 1 mps 754 mmHg 84%
    22:00 +14°C° 0 mm 1 mps 754 mmHg 86%
    23:00 +13°C° 0 mm 1 mps 755 mmHg 87%

    Tomorrow, 23 August, Friday

    Time Temperature Precipitation Wind Pressure Humidity
    00:00 +13°C° 0 mm 1 mps 755 mmHg 88%
    01:00 +13°C° 0 mm 1 mps 755 mmHg 89%
    02:00 +12°C° 0 mm 1 mps 755 mmHg 90%
    03:00 +12°C° 0 mm 1 mps 755 mmHg 91%
    04:00 +11°C° 0 mm 0 mps 755 mmHg 91%
    05:00 +10°C° 0 mm 0 mps 755 mmHg 92%
    06:00 +12°C° 0 mm 0 mps 755 mmHg 86%
    07:00 +14°C° 0 mm 0 mps 756 mmHg 81%
    08:00 +16°C° 0 mm 0 mps 756 mmHg 75%
    09:00 +20°C° 0 mm 1 mps 756 mmHg 70%
    10:00 +21°C° 0 mm 1 mps 756 mmHg 65%
    11:00 +22°C° 0 mm 1 mps 756 mmHg 60%
    12:00 +23°C° 0 mm 1 mps 756 mmHg 59%
    13:00 +23°C° 0 mm 2 mps 756 mmHg 57%
    14:00 +23°C° 0 mm 2 mps 755 mmHg 55%
    15:00 +23°C° 0 mm 2 mps 755 mmHg 59%
    16:00 +23°C° 0 mm 1 mps 755 mmHg 64%
    17:00 +22°C° 0 mm 1 mps 755 mmHg 68%
    18:00 +20°C° 0 mm 1 mps 755 mmHg 73%
    19:00 +18°C° 0 mm 1 mps 755 mmHg 77%
    20:00 +15°C° 0 mm 1 mps 755 mmHg 82%
    21:00 +15°C° 0 mm 1 mps 755 mmHg 83%
    22:00 +14°C° 0 mm 1 mps 755 mmHg 84%
    23:00 +13°C° 0 mm 1 mps 755 mmHg 85%

    Day after tomorrow, 24 August, Saturday

    Time Temperature Precipitation Wind Pressure Humidity
    00:00 +13°C° 0 mm 1 mps 755 mmHg 87%
    01:00 +13°C° 0 mm 1 mps 755 mmHg 88%
    02:00 +11°C° 0 mm 0 mps 755 mmHg 89%
    03:00 +12°C° 0 mm 1 mps 755 mmHg 90%
    04:00 +12°C° 0 mm 1 mps 755 mmHg 90%
    05:00 +12°C° 0 mm 1 mps 755 mmHg 91%
    06:00 +14°C° 0 mm 1 mps 755 mmHg 86%
    07:00 +16°C° 0 mm 1 mps 755 mmHg 81%
    08:00 +19°C° 0 mm 1 mps 755 mmHg 76%
    09:00 +19°C° 0 mm 2 mps 755 mmHg 72%
    10:00 +20°C° 0 mm 2 mps 755 mmHg 68%
    11:00 +21°C° 0 mm 2 mps 755 mmHg 64%
    12:00 +23°C° 0 mm 2 mps 754 mmHg 62%
    13:00 +23°C° 0 mm 2 mps 754 mmHg 61%
    14:00 +24°C° 0 mm 2 mps 754 mmHg 59%
    15:00 +23°C° 0 mm 2 mps 753 mmHg 64%
    16:00 +23°C° 0 mm 2 mps 753 mmHg 68%
    17:00 +23°C° 0 mm 2 mps 753 mmHg 73%
    18:00 +20°C° 0 mm 2 mps 753 mmHg 78%
    19:00 +19°C° 0 mm 1 mps 753 mmHg 83%
    20:00 +16°C° 0 mm 1 mps 753 mmHg 88%
    21:00 +16°C° 0 mm 1 mps 753 mmHg 90%
    22:00 +15°C° 0 mm 1 mps 753 mmHg 91%
    23:00 +15°C° 0 mm 1 mps 753 mmHg 92%

    25 August, Sunday

    Time Temperature Precipitation Wind Pressure Humidity
    00:00 +14°C° 0 mm 1 mps 752 mmHg 92%
    01:00 +14°C° 0 mm 1 mps 752 mmHg 92%
    02:00 +14°C° 0 mm 1 mps 752 mmHg 93%
    03:00 +13°C° 0 mm 1 mps 752 mmHg 93%
    04:00 +13°C° 0 mm 1 mps 752 mmHg 94%
    05:00 +13°C° 0 mm 1 mps 752 mmHg 94%
    06:00 +15°C° 0 mm 1 mps 752 mmHg 89%
    07:00 +16°C° 0 mm 2 mps 752 mmHg 84%
    08:00 +18°C° 0 mm 2 mps 752 mmHg 80%
    09:00 +19°C° 0 mm 2 mps 752 mmHg 77%
    10:00 +20°C° 0 mm 2 mps 752 mmHg 74%
    11:00 +23°C° 0 mm 2 mps 752 mmHg 71%
    12:00 +23°C° 0.4 mm 2 mps 752 mmHg 71%
    13:00 +22°C° 0.4 mm 3 mps 752 mmHg 71%
    14:00 +22°C° 0.4 mm 3 mps 752 mmHg 70%
    15:00 +22°C° 0.1 mm 3 mps 752 mmHg 71%
    16:00 +23°C° 0.1 mm 2 mps 753 mmHg 72%
    17:00 +21°C° 0.1 mm 2 mps 753 mmHg 73%
    18:00 +19°C° 0 mm 2 mps 753 mmHg 77%
    19:00 +17°C° 0 mm 2 mps 753 mmHg 80%
    20:00 +15°C° 0 mm 2 mps 753 mmHg 84%
    21:00 +14°C° 0 mm 2 mps 754 mmHg 87%
    22:00 +14°C° 0 mm 2 mps 754 mmHg 89%
    23:00 +13°C° 0 mm 2 mps 755 mmHg 92%

    26 August, Monday

    Time Temperature Precipitation Wind Pressure Humidity
    00:00 +13°C° 0 mm 2 mps 755 mmHg 93%
    01:00 +12°C° 0 mm 2 mps 755 mmHg 94%
    02:00 +12°C° 0 mm 2 mps 755 mmHg 95%
    03:00 +10°C° 0 mm 2 mps 755 mmHg 95%
    04:00 +10°C° 0 mm 2 mps 755 mmHg 95%
    05:00 +10°C° 0 mm 2 mps 755 mmHg 96%
    06:00 +12°C° 0 mm 2 mps 756 mmHg 90%
    07:00 +14°C° 0 mm 2 mps 756 mmHg 85%
    08:00 +16°C° 0 mm 2 mps 756 mmHg 80%
    09:00 +18°C° 0 mm 2 mps 756 mmHg 74%
    10:00 +19°C° 0 mm 2 mps 756 mmHg 68%
    11:00 +21°C° 0 mm 2 mps 756 mmHg 62%
    12:00 +21°C° 0 mm 2 mps 756 mmHg 60%
    13:00 +23°C° 0 mm 2 mps 756 mmHg 57%
    14:00 +23°C° 0 mm 2 mps 756 mmHg 55%
    15:00 +23°C° 0 mm 2 mps 755 mmHg 60%
    16:00 +22°C° 0 mm 1 mps 755 mmHg 65%
    17:00 +22°C° 0 mm 1 mps 755 mmHg 69%
    18:00 +20°C° 0 mm 1 mps 755 mmHg 74%
    19:00 +18°C° 0 mm 1 mps 755 mmHg 79%
    20:00 +15°C° 0 mm 1 mps 755 mmHg 85%
    21:00 +15°C° 0 mm 1 mps 755 mmHg 86%
    22:00 +14°C° 0 mm 1 mps 755 mmHg 88%
    23:00 +14°C° 0 mm 1 mps 755 mmHg 89%

    27 August, Tuesday

    Time Temperature Precipitation Wind Pressure Humidity
    00:00 +13°C° 0 mm 1 mps 755 mmHg 91%
    01:00 +13°C° 0 mm 2 mps 755 mmHg 92%
    02:00 +13°C° 0 mm 2 mps 754 mmHg 93%
    03:00 +12°C° 0 mm 2 mps 754 mmHg 94%
    04:00 +12°C° 0 mm 1 mps 754 mmHg 94%
    05:00 +12°C° 0 mm 1 mps 754 mmHg 94%
    06:00 +14°C° 0 mm 1 mps 754 mmHg 88%
    07:00 +16°C° 0 mm 1 mps 754 mmHg 82%
    08:00 +18°C° 0 mm 1 mps 754 mmHg 76%
    09:00 +20°C° 0 mm 1 mps 754 mmHg 72%
    10:00 +22°C° 0 mm 1 mps 754 mmHg 68%
    11:00 +23°C° 0 mm 2 mps 754 mmHg 64%
    12:00 +24°C° 0 mm 2 mps 753 mmHg 63%
    13:00 +24°C° 0 mm 2 mps 753 mmHg 62%
    14:00 +25°C° 0 mm 2 mps 753 mmHg 62%
    15:00 +24°C° 0 mm 2 mps 753 mmHg 66%
    16:00 +24°C° 0 mm 2 mps 752 mmHg 69%
    17:00 +24°C° 0 mm 1 mps 752 mmHg 73%
    18:00 +22°C° 0 mm 1 mps 752 mmHg 79%
    19:00 +20°C° 0 mm 1 mps 752 mmHg 84%
    20:00 +19°C° 0 mm 1 mps 752 mmHg 89%
    21:00 +18°C° 0 mm 1 mps 752 mmHg 91%
    22:00 +18°C° 0 mm 1 mps 752 mmHg 92%
    23:00 +18°C° 0 mm 1 mps 752 mmHg 93%
    Show more